Regional Weather Roundup
Issued by NWS

Home | Current Version | Previous Version | Graphics & Text | Print | Product List | Glossary On
Versions: 1 2 3 4 5 6 7 8 9 10 11 12 13 14 15 16 17 18 19 20 21 22 23 24 25 26 27 28 29 30 31 32 33 34 35 36 37 38 39 40 41 42 43 44 45 46 47 48 49 50
000
ASUS43 KBIS 200210
RWRND

NORTH DAKOTA REGIONAL WEATHER ROUNDUP
NATIONAL WEATHER SERVICE BISMARCK ND
800 PM CST MON FEB 19 2018

NOTE: "FAIR" INDICATES FEW OR NO CLOUDS BELOW 12,000 FEET WITH NO
SIGNIFICANT WEATHER AND/OR OBSTRUCTIONS TO VISIBILITY.


NDZ001>003-009>011-017-200300-
NORTHWEST NORTH DAKOTA

CITY           SKY/WX    TMP DP  RH WIND       PRES   REMARKS
WILLISTON      CLOUDY     3  -3  76 NW5       30.16R WCI  -6
MINOT          LGT SNOW   7   1  76 CALM      30.16F
MINOT AFB      CLOUDY     5  -3  69 NE5       30.15F WCI  -4
$$

NDZ018>021-031>035-040>046-200300-
SOUTHWEST NORTH DAKOTA

CITY           SKY/WX    TMP DP  RH WIND       PRES   REMARKS
BISMARCK       LGT SNOW   4  -1  80 N10       30.16S WCI -11
DICKINSON      LGT SNOW   2  -2  83 N6        30.06S FOG     WCI  -9
GARRISON         N/A      3  -1  83 CALM      30.15S
HETTINGER ARPT CLOUDY     1  -5  75 NE6       30.07R WCI -10
$$

NDZ004>008-012>016-024-026-027-054-200300-
NORTHEAST NORTH DAKOTA

CITY           SKY/WX    TMP DP  RH WIND       PRES   REMARKS
GRAND FORKS    CLOUDY     5  -4  66 N15       30.22F WCI -13
GRND FRKS AFB  MOCLDY     4  -6  63 N15       30.22F WCI -14
DEVILS LAKE    LGT SNOW   3  -2  78 N9        30.18F WCI -11
$$

NDZ022-023-025-028>030-036>039-047>053-200300-
SOUTHEAST NORTH DAKOTA

CITY           SKY/WX    TMP DP  RH WIND       PRES   REMARKS
FARGO          LGT SNOW   6   0  76 N21G31    30.14F WCI -14
JAMESTOWN      LGT SNOW   3  -1  83 N18       30.13F FOG     WCI -17
$$





USA.gov is the U.S. government's official web portal to all federal, state and local government web resources and services.